Nadi, Fiji

4:49 AM FJST on December 04, 2016 (GMT +1300)
Nadi

Weather History for 91680 - January, 2014

Change the Weather History Date:

Thursday, January 2, 2014

  Actual Average Record
Temperature  
Mean Temperature 80 °F -  
Max Temperature 87 °F - - ()
Min Temperature 73 °F - - ()
Cooling Degree Days 15    
Growing Degree Days 30 (Base 50)    
Moisture  
Dew Point 75 °F    
Average Humidity 83    
Maximum Humidity 100    
Minimum Humidity 60    
Precipitation  
Precipitation 0.00 in - - ()
Sea Level Pressure  
Sea Level Pressure 29.69 in    
Wind  
Wind Speed 5 mph ()    
Max Wind Speed 13 mph    
Max Gust Speed -    
Visibility 6.8 miles    
Events      
T = Trace of Precipitation, MM = Missing Value Source: Averaged Metar Reports

Daily Weather History Graph

Daily Weather History Graph

Search for Another Location

Airport or City:

Trip Planner

Search our weather history database for the weather conditions in past years. The results will help you decide how hot, cold, wet, or windy it might be!

Date:

Astronomy

Jan. 02, 2014 Rise Set
Actual Time 6:38 AM FJST 7:49 PM FJST
Civil Twilight 6:14 AM FJST 8:13 PM FJST
Nautical Twilight 5:46 AM FJST 8:41 PM FJST
Astronomical Twilight 5:17 AM FJST 9:10 PM FJST
Moon 7:06 AM FJST (1/2) 8:23 PM FJST (1/2)
Length of Visible Light 13h 58m
Length of Day
13h 10m
New Moon, 0% of the Moon is Illuminated
Jan 2
New Moon
Jan 8
First Quarter
Jan 16
Full
Jan 24
Last Quarter
Jan 31
New

Hourly Weather History & Observations

Time (FJST) Temp. Heat Index Dew Point Humidity Pressure Visibility Wind Dir Wind Speed Gust Speed Precip Events Conditions
12:00 AM 75.2 °F - 75.2 °F 100% 29.74 in 6.2 mi ESE 3.5 mph - N/A   Mostly Cloudy
1:00 AM 75 °F - 74 °F 97% 29.73 in 12 mi East 3.5 mph - -   Partly Cloudy
1:00 AM 75.2 °F - 75.2 °F 100% 29.71 in 6.2 mi East 3.5 mph - N/A   Scattered Clouds
2:00 AM 75.2 °F - 73.4 °F 94% 29.71 in 6.2 mi ESE 4.6 mph - N/A   Scattered Clouds
3:00 AM 75.2 °F - 73.4 °F 94% 29.68 in 6.2 mi ESE 5.8 mph - N/A   Scattered Clouds
4:00 AM 75 °F - 73 °F 93% 29.68 in 12 mi ESE 5.8 mph - -   Partly Cloudy
4:00 AM 75.2 °F - 73.4 °F 94% 29.65 in 6.2 mi ESE 5.8 mph - N/A   Scattered Clouds
5:00 AM 75.2 °F - 73.4 °F 94% 29.65 in 6.2 mi ESE 4.6 mph - N/A   Scattered Clouds
6:00 AM 73.4 °F - 73.4 °F 100% 29.68 in 6.2 mi SE 5.8 mph - N/A   Scattered Clouds
7:00 AM 74 °F - 73 °F 96% 29.70 in 31 mi ESE 4.6 mph - -   Partly Cloudy
7:00 AM 75.2 °F - 73.4 °F 94% 29.68 in 6.2 mi ESE 4.6 mph - N/A   Scattered Clouds
8:00 AM 78.8 °F - 75.2 °F 89% 29.71 in 6.2 mi ESE 6.9 mph - N/A   Scattered Clouds
9:00 AM 82.4 °F 89.5 °F 75.2 °F 79% 29.71 in 6.2 mi Calm Calm - N/A   Scattered Clouds
10:00 AM 86 °F - 75 °F 63% 29.72 in 31 mi 2.3 mph - -   Partly Cloudy
10:00 AM 86.0 °F 95.1 °F 75.2 °F 70% 29.71 in 6.2 mi Variable 2.3 mph - N/A   Scattered Clouds
11:00 AM 86.0 °F 95.1 °F 75.2 °F 70% 29.71 in 6.2 mi West 5.8 mph - N/A   Scattered Clouds
12:00 PM 86.0 °F 96.9 °F 77.0 °F 74% 29.71 in 6.2 mi West 9.2 mph - N/A   Scattered Clouds
1:00 PM 87 °F - 75 °F 60% 29.70 in 31 mi West 10.4 mph - -   Partly Cloudy
1:00 PM 86.0 °F 95.1 °F 75.2 °F 70% 29.68 in 6.2 mi West 10.4 mph - N/A   Scattered Clouds
2:00 PM 87.8 °F 99.7 °F 77.0 °F 70% 29.68 in 6.2 mi West 12.7 mph - N/A   Scattered Clouds
3:00 PM 87.8 °F 102.5 °F 78.8 °F 75% 29.68 in 6.2 mi West 12.7 mph - N/A   Scattered Clouds
4:00 PM 86 °F - 76 °F 67% 29.69 in 31 mi West 12.7 mph - -   Partly Cloudy
4:00 PM 86.0 °F 96.9 °F 77.0 °F 74% 29.68 in 6.2 mi West 12.7 mph - N/A   Scattered Clouds
5:00 PM 86.0 °F 96.9 °F 77.0 °F 74% 29.68 in 6.2 mi West 9.2 mph - N/A   Scattered Clouds
6:00 PM 80.6 °F 85.4 °F 73.4 °F 79% 29.68 in 6.2 mi ESE 10.4 mph - N/A   Scattered Clouds
7:00 PM 83 °F - 75 °F 71% 29.69 in 31 mi NNE 3.5 mph - -   Partly Cloudy
7:00 PM 82.4 °F 89.5 °F 75.2 °F 79% 29.68 in 6.2 mi NNE 3.5 mph - N/A   Mostly Cloudy
8:00 PM 80.6 °F 86.2 °F 75.2 °F 84% 29.68 in 6.2 mi ESE 4.6 mph - N/A   Mostly Cloudy
9:00 PM 80.6 °F 87.1 °F 77.0 °F 89% 29.68 in 6.2 mi ENE 5.8 mph - N/A   Scattered Clouds
10:00 PM 78 °F - 75 °F 88% 29.72 in 12 mi ESE 4.6 mph - -   Partly Cloudy
10:00 PM 78.8 °F - 75.2 °F 89% 29.71 in 6.2 mi ESE 4.6 mph - N/A   Scattered Clouds
11:00 PM 77.0 °F - 75.2 °F 94% 29.71 in 6.2 mi Variable 3.5 mph - N/A   Partly Cloudy